Regional Weather Roundup
Issued by NWS

Home | Current Version | Previous Version | Text Only | Print | Product List | Glossary On
Versions: 1 2 3 4 5 6 7 8 9 10 11 12 13 14 15 16 17 18 19 20 21 22 23 24 25 26 27 28 29 30 31 32 33 34 35 36 37 38 39 40 41 42 43 44 45 46 47 48 49 50
000
ASUS45 KBOI 231010
RWRID
WEATHER ROUNDUP FOR IDAHO
NATIONAL WEATHER SERVICE BOISE ID
300 AM MST SUN NOV 23 2014

NOTE: "FAIR" INDICATES FEW OR NO CLOUDS BELOW 12000 FEET
WITH NO SIGNIFICANT WEATHER AND/OR OBSTRUCTIONS TO VISIBILITY

IDZ012-014-231100-
SOUTHWEST IDAHO


CITY           SKY/WX    TMP DP  RH WIND       PRES   REMARKS
BOISE          CLEAR     35  27  72 W7        30.18R WCI  29
CALDWELL       NOT AVBL
MOUNTAIN HOME  CLEAR     34  31  89 NW8       30.18R WCI  27
$$

IDZ016-017-231100-
SOUTHCENTRAL IDAHO


CITY           SKY/WX    TMP DP  RH WIND       PRES   REMARKS
BURLEY         FLURRIES  32  25  75 W25G39    30.02R WCI  19
JEROME         CLEAR     31  25  78 W31G41    30.05R WCI  16
TWIN FALLS     CLEAR     32  24  72 W21G31    30.09R WCI  20
$$

IDZ019>023-231100-
SOUTHEAST IDAHO


CITY           SKY/WX    TMP DP  RH WIND       PRES   REMARKS
IDAHO FALLS    CLOUDY    31  24  75 W5        29.93R WCI  26
POCATELLO      CLOUDY    32  30  92 W20G31    29.96R WCI  20
REXBURG        CLOUDY    30  28  92 NW5       29.91R WCI  25
$$

IDZ006-010-011-018-031-032-231100-
CENTRAL IDAHO MOUNTAINS


CITY           SKY/WX    TMP DP  RH WIND       PRES   REMARKS
MCCALL         PTCLDY    23  21  92 CALM      30.07R
HAILEY         CLEAR     30  21  69 NW8       29.99R WCI  23
STANLEY          N/A     22  14  71 VRB3      30.03R
SALMON         MOCLDY    30  27  86 SW6       29.98R WCI  24
CHALLIS        MOCLDY    26  20  77 S6        29.98R WCI  19
$$

IDZ002-004-006-007-026-231100-
NORTHERN IDAHO


CITY           SKY/WX    TMP DP  RH WIND       PRES   REMARKS
LEWISTON       PTCLDY    42  31  64 S8        30.12R
LOWELL           N/A     35  34  96 CALM      30.15R
COEUR D`ALENE  PTCLDY    30  27  86 SW5       30.06R WCI  25
MULLAN PASS    CLOUDY    25  21  85 W8        29.92R WCI  16
$$


USA.gov is the U.S. government's official web portal to all federal, state and local government web resources and services.